Location: Plymouth
(43.7570°N, 71.6890°W)
Time: 20:31:49
(UTC-05:00)

Amateur Radio Satellites - All Passes

Search period start: 18 December 2014 20:01
Search period end: 19 December 2014 20:01
Location: Plymouth, 43.7570°N, 71.6890°W

Satellite Date Start Highest point End Downlink Frequencies (MHz)
Time Altitude Azimuth
COMPASS 1 18 Dec 20:01:57 20:06:09 79° 76° (ENE) 20:10:25 437.405
SEEDS 18 Dec 20:04:24 20:08:38 83° 257° (WSW) 20:12:56 437.485
CUTE 1.7 + AOD 2 18 Dec 20:04:52 20:09:06 71° 258° (WSW) 20:13:25 437.475
SO-50 18 Dec 20:04:58 20:07:08 13° 108° (ESE) 20:09:19 436.795
DX 1 18 Dec 20:07:27 20:11:22 34° 69° (ENE) 20:15:18 434.975-435.025
STRAND 1 18 Dec 20:15:58 20:19:26 19° 299° (WNW) 20:22:54 437.568
BRITE-PL 18 Dec 20:23:14 20:27:12 40° 262° (W) 20:31:08 437.365/2234.400
ISS 18 Dec 20:27:26 20:30:40 62° 216° (SW) 20:33:54 145.825
DELFI C3 18 Dec 20:32:01 20:36:04 62° 74° (ENE) 20:40:11 145.870
Oscar 11 18 Dec 20:33:25 20:37:44 78° 75° (ENE) 20:42:06 145.826/435.025
50 SAT 18 Dec 20:36:12 20:38:56 18° 65° (ENE) 20:41:41 437.505
CUBEBUG 2 18 Dec 20:38:07 20:42:10 53° 73° (ENE) 20:46:20 437.445
CINEMA 3 18 Dec 20:40:09 20:44:18 89° 259° (W) 20:48:34 145.822/145.860
CUSAT 1 18 Dec 20:40:23 20:47:50 77° 263° (W) 20:56:20 437.405
UKube-1 18 Dec 20:40:29 20:44:48 74° 74° (ENE) 20:49:08 .
HUMSAT D 18 Dec 20:40:32 20:43:54 25° 67° (ENE) 20:47:19 437.325/437.525
ESTCUBE 1 18 Dec 20:49:02 20:51:27 14° 61° (ENE) 20:53:52 437.505/2401.250
RS-15 18 Dec 20:52:32 21:03:51 88° 238° (WSW) 21:15:40 29.354- 29.394
VELOX 1 18 Dec 20:52:40 20:56:39 34° 69° (ENE) 21:00:39 145.980
ZACube-1 18 Dec 20:58:13 21:02:20 65° 74° (ENE) 21:06:34 437.345
AIST 2 18 Dec 20:59:32 21:01:25 13° 33° (NNE) 21:03:17 435.215
GOMX 1 18 Dec 21:01:50 21:05:08 23° 266° (W) 21:08:26 467.674
BEESAT 3 18 Dec 21:04:25 21:07:45 22° 43° (NE) 21:11:03 437.485
AAUSAT CUBESAT 2 18 Dec 21:04:46 21:08:14 25° 266° (W) 21:11:44 437.432
UNISAT 6 18 Dec 21:10:25 21:12:06 12° 88° (E) 21:13:46 437.425
CANX-2 18 Dec 21:12:11 21:14:17 13° 270° (W) 21:16:23 2200.000
UWE-3 18 Dec 21:20:53 21:24:59 60° 259° (W) 21:29:13 435.000/436.395/437.385
DANDE 18 Dec 21:21:43 21:28:46 49° 267° (W) 21:36:54 436.750
FUNcube-1 18 Dec 21:25:40 21:29:48 63° 259° (W) 21:34:01 145.935
AISAT 18 Dec 21:34:04 21:38:30 86° 256° (WSW) 21:42:57 437.250
PCSat 18 Dec 21:36:42 21:41:04 24° 43° (NE) 21:45:23 145.827
DUCHIFAT 1 18 Dec 21:37:09 21:39:01 13° 90° (E) 21:40:52 145.980
DOVE 4 18 Dec 21:38:53 21:40:48 13° 270° (W) 21:42:43 437.250
ANTELSAT 18 Dec 21:40:21 21:44:11 24° 94° (E) 21:48:00 437.575/2403.000
BEESAT 2 18 Dec 21:41:56 21:45:56 40° 49° (NE) 21:49:52 435.950
SO-50 18 Dec 21:42:27 21:47:00 76° 306° (NW) 21:51:43 436.795
DX 1 18 Dec 21:44:12 21:47:40 23° 265° (W) 21:51:10 434.975-435.025
HO-68 18 Dec 21:46:29 21:50:09 15° 273° (W) 21:53:50 435.675
BUGSAT 1 18 Dec 21:46:53 21:48:30 12° 90° (E) 21:50:07 437.445
YUBILEINY 18 Dec 21:47:15 21:50:36 13° 72° (ENE) 21:53:57 435.215
CUBEBUG 1 18 Dec 21:48:11 21:52:24 49° 72° (ENE) 21:56:37 437.445
QB50P2 18 Dec 21:48:16 21:51:07 17° 92° (E) 21:53:59 145.880/145.840
POLYITAN 1 18 Dec 21:55:59 21:59:15 21° 94° (E) 22:02:31 437.675
NANOSAT C BR1 18 Dec 22:00:04 22:03:27 23° 94° (E) 22:06:49 145.865
50 SAT 18 Dec 22:10:05 22:13:52 40° 262° (W) 22:17:42 437.505
DELFI C3 18 Dec 22:10:20 22:11:46 12° 271° (W) 22:13:12 145.870
QB50P1 18 Dec 22:13:46 22:17:35 32° 97° (E) 22:21:24 145.935-145.965
HUMSAT D 18 Dec 22:16:00 22:19:36 29° 264° (W) 22:23:17 437.325/437.525
TIGRISAT 18 Dec 22:16:44 22:21:20 54° 100° (E) 22:25:57 435.000
CUBEBUG 2 18 Dec 22:17:08 22:19:16 14° 270° (W) 22:21:26 437.445
UKube-1 18 Dec 22:20:32 22:21:28 11° 271° (W) 22:22:24 .
ESTCUBE 1 18 Dec 22:23:15 22:27:46 68° 258° (WSW) 22:32:19 437.505/2401.250
CUSAT 1 18 Dec 22:25:37 22:30:05 17° 278° (W) 22:34:49 437.405
VELOX 1 18 Dec 22:29:43 22:33:18 24° 265° (W) 22:36:53 145.980
AIST 2 18 Dec 22:36:34 22:40:53 67° 54° (NE) 22:45:06 435.215
ZACube-1 18 Dec 22:37:51 22:39:12 11° 272° (W) 22:40:33 437.345
POPSAT HIP 1 18 Dec 22:41:53 22:46:08 65° 102° (ESE) 22:50:22 437.405
BEESAT 3 18 Dec 22:42:09 22:46:10 47° 241° (WSW) 22:50:07 437.485
UNISAT 6 18 Dec 22:44:42 22:49:25 78° 285° (WNW) 22:54:08 437.425
ITUPSAT 1 18 Dec 22:58:48 23:01:12 14° 59° (ENE) 23:03:37 437.325
SWISSCUBE 18 Dec 22:58:51 23:01:33 15° 60° (ENE) 23:04:16 437.505
SPROUT 18 Dec 23:04:35 23:08:51 76° 75° (ENE) 23:13:09 437.525
RS-15 18 Dec 23:06:28 23:14:44 24° 259° (W) 23:23:17 29.354- 29.394
TISAT 1 18 Dec 23:08:12 23:12:25 89° 257° (WSW) 23:16:39 437.305
DUCHIFAT 1 18 Dec 23:11:04 23:15:16 61° 286° (WNW) 23:19:27 145.980
ANTELSAT 18 Dec 23:16:43 23:21:04 38° 290° (WNW) 23:25:25 437.575/2403.000
PCSat 18 Dec 23:19:33 23:24:57 65° 243° (WSW) 23:30:17 145.827
BUGSAT 1 18 Dec 23:20:23 23:24:22 57° 287° (WNW) 23:28:21 437.445
BEESAT 2 18 Dec 23:20:41 23:23:57 22° 247° (WSW) 23:27:10 435.950
BEESAT 18 Dec 23:23:03 23:26:48 23° 64° (ENE) 23:30:33 436.000
QB50P2 18 Dec 23:23:12 23:27:15 44° 289° (WNW) 23:31:19 145.880/145.840
SO-50 18 Dec 23:25:38 23:28:23 15° 327° (NNW) 23:31:11 436.795
CUBEBUG 1 18 Dec 23:26:18 23:29:03 16° 268° (W) 23:31:48 437.445
POLYITAN 1 18 Dec 23:31:22 23:35:18 36° 290° (WNW) 23:39:14 437.675
NANOSAT C BR1 18 Dec 23:35:34 23:39:23 33° 291° (WNW) 23:43:12 145.865
YUBILEINY 18 Dec 23:36:59 23:45:38 68° 93° (E) 23:54:15 435.215
AUBIESAT-1 18 Dec 23:48:00 23:52:10 30° 61° (ENE) 23:56:24 437.475
QB50P1 18 Dec 23:49:54 23:53:20 24° 293° (WNW) 23:56:47 145.935-145.965
TIGRISAT 18 Dec 23:54:29 23:57:40 19° 297° (WNW) 00:00:53 435.000
M-CUBED/EXP-1 PRIME 19 Dec 00:11:27 00:16:07 52° 66° (ENE) 00:20:55 437.505
AIST 2 19 Dec 00:16:48 00:18:57 14° 251° (WSW) 00:21:05 435.215
POPSAT HIP 1 19 Dec 00:19:28 00:21:31 13° 298° (WNW) 00:23:34 437.405
UNISAT 6 19 Dec 00:24:57 00:25:24 10° 302° (WNW) 00:25:51 437.425
ITUPSAT 1 19 Dec 00:33:38 00:38:27 79° 257° (WSW) 00:43:17 437.325
SWISSCUBE 19 Dec 00:34:04 00:38:51 71° 257° (WSW) 00:43:39 437.505
O/OREOS (USA 219) 19 Dec 00:43:39 00:48:04 68° 111° (ESE) 00:52:31 437.305
KKS-1 19 Dec 00:58:54 01:03:03 41° 70° (ENE) 01:07:13 437.445
BEESAT 19 Dec 00:59:50 01:04:23 43° 261° (W) 01:08:57 436.000
STARS 19 Dec 01:00:01 01:03:47 29° 67° (ENE) 01:07:34 437.465
Gurwin Techsat 1B 19 Dec 01:02:14 01:03:37 11° 87° (E) 01:05:00 435.225
Oscar 19 19 Dec 01:04:43 01:09:47 51° 100° (E) 01:14:50 437.125/150
ITAMSAT 1 19 Dec 01:16:33 01:20:45 25° 94° (E) 01:24:56 435.822/435.867
AUBIESAT-1 19 Dec 01:22:30 01:26:57 37° 258° (WSW) 01:31:31 437.475
YUBILEINY 19 Dec 01:35:54 01:43:09 29° 294° (WNW) 01:50:27 435.215
M-CUBED/EXP-1 PRIME 19 Dec 01:47:46 01:51:22 21° 263° (W) 01:55:02 437.505
AO-7 19 Dec 02:08:20 02:09:46 11° 84° (E) 02:11:13 29.400- 29.500
AIST 1 19 Dec 02:09:02 02:10:48 12° 67° (ENE) 02:12:34
HORYU 2 19 Dec 02:19:15 02:22:47 22° 94° (E) 02:26:17 437.375
O/OREOS (USA 219) 19 Dec 02:25:19 02:27:58 15° 310° (NW) 02:30:37 437.305
STARS 19 Dec 02:36:27 02:40:13 28° 264° (W) 02:44:00 437.465
KKS-1 19 Dec 02:36:37 02:39:52 20° 267° (W) 02:43:08 437.445
Gurwin Techsat 1B 19 Dec 02:39:00 02:44:21 86° 104° (ESE) 02:49:40 435.225
Oscar 19 19 Dec 02:44:48 02:48:47 23° 297° (WNW) 02:52:45 437.125/150
VERMONT LUNAR 19 Dec 02:53:42 02:55:31 14° 150° (SSE) 02:57:20 437.305
ITAMSAT 1 19 Dec 02:55:32 03:00:25 43° 291° (WNW) 03:05:16 435.822/435.867
PHONESAT 2.4 19 Dec 02:59:39 03:00:18 10° 147° (SSE) 03:00:58 2401.200-2431.200
MOZHAYETS 4 19 Dec 03:30:39 03:35:09 52° 72° (ENE) 03:39:41
GONETS M04 19 Dec 03:40:05 03:44:54 16° 74° (ENE) 03:49:42
AIST 1 19 Dec 03:44:42 03:48:57 63° 265° (W) 03:53:08
HORYU 2 19 Dec 03:55:22 03:59:34 39° 291° (WNW) 04:03:45 437.375
AO-7 19 Dec 03:55:57 04:04:15 61° 104° (ESE) 04:12:28 29.400- 29.500
STRAND 1 19 Dec 04:16:46 04:19:29 15° 58° (ENE) 04:22:11 437.568
Gurwin Techsat 1B 19 Dec 04:20:47 04:23:35 15° 302° (WNW) 04:26:22 435.225
VERMONT LUNAR 19 Dec 04:30:00 04:33:17 37° 166° (SSE) 04:36:34 437.305
SO-50 19 Dec 04:32:46 04:36:44 24° 41° (NE) 04:40:42 436.795
PHONESAT 2.4 19 Dec 04:35:04 04:38:20 32° 163° (SSE) 04:41:36 2401.200-2431.200
JAS-2 19 Dec 04:35:09 04:40:42 47° 98° (E) 04:45:46 435.910
CUBESAT XI-V 19 Dec 04:49:10 04:53:06 27° 67° (ENE) 04:57:01 437.345
PRISM 19 Dec 04:55:38 04:59:50 66° 74° (ENE) 05:04:03 437.425
MOZHAYETS 4 19 Dec 05:09:38 05:12:41 17° 269° (W) 05:15:45
GONETS M04 19 Dec 05:31:22 05:40:11 79° 95° (E) 05:49:03
Cubesat XI-IV 19 Dec 05:36:28 05:41:23 37° 97° (E) 05:46:17 437.490
AO-7 19 Dec 05:49:18 05:56:36 35° 303° (WNW) 06:03:52 29.400- 29.500
STRAND 1 19 Dec 05:52:52 05:57:59 82° 256° (WSW) 06:03:08 437.568
VERMONT LUNAR 19 Dec 06:07:55 06:11:21 49° 183° (S) 06:14:47 437.305
CUTE-I 19 Dec 06:10:02 06:15:21 73° 103° (ESE) 06:20:39 437.470
SO-50 19 Dec 06:12:50 06:17:39 61° 240° (WSW) 06:22:29 436.795
PHONESAT 2.4 19 Dec 06:13:11 06:16:43 51° 180° (S) 06:20:16 2401.200-2431.200
JAS-2 19 Dec 06:20:50 06:25:28 25° 299° (WNW) 06:29:46 435.910
CUBESAT XI-V 19 Dec 06:26:11 06:30:25 34° 264° (W) 06:34:39 437.345
PRISM 19 Dec 06:34:20 06:35:48 12° 270° (W) 06:37:16 437.425
Cubesat XI-IV 19 Dec 07:16:45 07:21:22 31° 295° (WNW) 07:25:58 437.490
HO-68 19 Dec 07:22:06 07:26:40 18° 89° (E) 07:31:12 435.675
GONETS M04 19 Dec 07:31:08 07:38:02 25° 297° (WNW) 07:44:58
VERMONT LUNAR 19 Dec 07:46:17 07:49:20 27° 200° (SSW) 07:52:23 437.305
COMPASS 1 19 Dec 07:46:47 07:48:27 12° 89° (E) 07:50:07 437.405
SEEDS 19 Dec 07:49:13 07:51:49 16° 91° (E) 07:54:24 437.485
CUTE 1.7 + AOD 2 19 Dec 07:50:02 07:53:05 19° 92° (E) 07:56:06 437.475
CUTE-I 19 Dec 07:51:29 07:54:50 17° 301° (WNW) 07:58:10 437.470
PHONESAT 2.4 19 Dec 07:51:49 07:55:08 33° 197° (SSW) 07:58:26 2401.200-2431.200
DOVE 4 19 Dec 07:56:58 07:59:42 15° 91° (E) 08:02:31 437.250
MaSat-1 19 Dec 08:11:02 08:12:11 13° 109° (ESE) 08:13:19 437.345
UNISAT 6 19 Dec 08:11:33 08:13:25 13° 60° (ENE) 08:15:19 437.425
CUSAT 1 19 Dec 08:16:07 08:16:17 10° 77° (ENE) 08:16:27 437.405
Oscar 11 19 Dec 08:21:23 08:23:28 13° 90° (E) 08:25:32 145.826/435.025
BRITE-PL 19 Dec 08:25:13 08:29:44 50° 100° (E) 08:34:36 437.365/2234.400
UKube-1 19 Dec 08:29:35 08:30:50 11° 89° (E) 08:32:04 .
CUBEBUG 2 19 Dec 08:30:03 08:31:36 12° 89° (E) 08:33:09 437.445
DUCHIFAT 1 19 Dec 08:32:08 08:33:54 12° 61° (ENE) 08:35:40 145.980
CINEMA 3 19 Dec 08:34:01 08:37:37 21° 93° (E) 08:41:19 145.822/145.860
BUGSAT 1 19 Dec 08:39:31 08:40:57 12° 61° (ENE) 08:42:21 437.445
ANTELSAT 19 Dec 08:41:20 08:44:51 24° 66° (ENE) 08:48:28 437.575/2403.000
QB50P2 19 Dec 08:43:24 08:46:06 17° 63° (ENE) 08:48:48 145.880/145.840
AAUSAT CUBESAT 2 19 Dec 08:46:16 08:50:23 47° 99° (E) 08:54:28 437.432
ZACube-1 19 Dec 08:47:31 08:49:27 12° 89° (E) 08:51:23 437.345
POLYITAN 1 19 Dec 08:51:12 08:54:16 20° 65° (ENE) 08:57:20 437.675
CANX-2 19 Dec 08:53:50 08:58:11 83° 284° (WNW) 09:02:30 2200.000
NANOSAT C BR1 19 Dec 08:54:46 08:57:56 21° 66° (ENE) 09:01:08 145.865
DANDE 19 Dec 08:56:44 08:59:31 23° 86° (E) 09:02:59 436.750
GOMX 1 19 Dec 09:00:09 09:04:51 82° 103° (ESE) 09:09:53 467.674
HO-68 19 Dec 09:08:02 09:15:14 87° 288° (WNW) 09:22:23 435.675
QB50P1 19 Dec 09:08:20 09:11:58 29° 68° (ENE) 09:15:37 145.935-145.965
UWE-3 19 Dec 09:09:48 09:13:37 26° 95° (E) 09:17:29 435.000/436.395/437.385
FUNcube-1 19 Dec 09:13:23 09:17:00 23° 94° (E) 09:20:38 145.935
O/OREOS (USA 219) 19 Dec 09:13:45 09:17:04 20° 53° (NE) 09:20:22 437.305
TIGRISAT 19 Dec 09:17:03 09:21:16 54° 72° (ENE) 09:25:38 435.000
COMPASS 1 19 Dec 09:20:22 09:24:36 64° 286° (WNW) 09:28:48 437.405
SEEDS 19 Dec 09:23:46 09:27:56 49° 288° (WNW) 09:32:03 437.485
CUTE 1.7 + AOD 2 19 Dec 09:25:07 09:29:12 42° 289° (WNW) 09:33:15 437.475
AISAT 19 Dec 09:25:10 09:28:00 17° 92° (E) 09:30:50 437.250
DX 1 19 Dec 09:30:20 09:34:35 52° 101° (E) 09:38:49 434.975-435.025
PHONESAT 2.4 19 Dec 09:32:03 09:33:11 11° 212° (SSW) 09:34:19 2401.200-2431.200
DOVE 4 19 Dec 09:33:09 09:37:48 64° 286° (WNW) 09:42:44 437.250
POPSAT HIP 1 19 Dec 09:36:13 09:40:21 58° 73° (ENE) 09:44:30 437.405
MaSat-1 19 Dec 09:44:01 09:45:28 15° 304° (NW) 09:46:53 437.345
UNISAT 6 19 Dec 09:45:13 09:49:34 75° 257° (WSW) 09:54:03 437.425
YUBILEINY 19 Dec 09:45:46 09:53:37 36° 69° (ENE) 10:01:24 435.215
DELFI C3 19 Dec 09:46:35 09:50:45 87° 284° (WNW) 09:54:52 145.870
50 SAT 19 Dec 09:49:22 09:52:48 25° 95° (E) 09:56:13 437.505
CUSAT 1 19 Dec 09:54:42 09:58:12 56° 285° (WNW) 10:02:56 437.405
Oscar 11 19 Dec 09:55:42 10:00:02 61° 286° (WNW) 10:04:19 145.826/435.025
HUMSAT D 19 Dec 09:58:43 10:02:48 39° 98° (E) 10:06:53 437.325/437.525
UKube-1 19 Dec 10:03:09 10:07:29 71° 286° (WNW) 10:11:47 .
CUBEBUG 2 19 Dec 10:04:10 10:08:47 78° 284° (WNW) 10:13:30 437.445
BRITE-PL 19 Dec 10:04:42 10:07:58 20° 295° (WNW) 10:11:24 437.365/2234.400
DUCHIFAT 1 19 Dec 10:05:02 10:09:13 68° 258° (WSW) 10:13:25 145.980
CINEMA 3 19 Dec 10:10:31 10:14:58 44° 289° (WNW) 10:19:35 145.822/145.860
BUGSAT 1 19 Dec 10:11:49 10:15:54 70° 258° (WSW) 10:19:58 437.445
ESTCUBE 1 19 Dec 10:15:32 10:19:07 23° 94° (E) 10:22:39 437.505/2401.250
ANTELSAT 19 Dec 10:17:31 10:21:29 34° 264° (W) 10:25:35 437.575/2403.000
QB50P2 19 Dec 10:17:34 10:21:38 48° 260° (W) 10:25:45 145.880/145.840
VELOX 1 19 Dec 10:18:13 10:22:36 58° 101° (E) 10:26:57 145.980
ZACube-1 19 Dec 10:21:45 10:26:15 70° 285° (WNW) 10:30:48 437.345
AAUSAT CUBESAT 2 19 Dec 10:22:54 10:25:41 17° 296° (WNW) 10:28:27 437.432
POLYITAN 1 19 Dec 10:26:00 10:29:57 39° 262° (W) 10:33:55 437.675
NANOSAT C BR1 19 Dec 10:29:44 10:33:36 36° 262° (W) 10:37:31 145.865
DANDE 19 Dec 10:40:01 10:42:56 23° 296° (WNW) 10:46:33 436.750
GOMX 1 19 Dec 10:40:20 10:42:26 13° 298° (WNW) 10:44:36 467.674
QB50P1 19 Dec 10:44:19 10:47:50 26° 265° (W) 10:51:22 145.935-145.965
UWE-3 19 Dec 10:46:04 10:50:11 35° 291° (WNW) 10:54:23 435.000/436.395/437.385
Oscar 19 19 Dec 10:47:27 10:49:28 12° 56° (ENE) 10:51:29 437.125/150
FUNcube-1 19 Dec 10:49:16 10:53:25 37° 290° (WNW) 10:57:37 145.935
SPROUT 19 Dec 10:52:12 10:53:56 12° 89° (E) 10:55:40 437.525
O/OREOS (USA 219) 19 Dec 10:52:23 10:56:45 49° 252° (WSW) 11:01:07 437.305
TISAT 1 19 Dec 10:53:41 10:55:44 13° 91° (E) 10:57:48 437.305
TIGRISAT 19 Dec 10:55:56 10:58:24 15° 270° (W) 11:00:55 435.000
HO-68 19 Dec 10:57:14 11:01:58 20° 307° (NW) 11:06:43 435.675
AISAT 19 Dec 11:00:37 11:04:54 50° 288° (WNW) 11:09:11 437.250
DX 1 19 Dec 11:07:41 11:10:25 17° 298° (WNW) 11:13:09 434.975-435.025
CUBEBUG 1 19 Dec 11:12:07 11:16:28 85° 103° (ESE) 11:20:48 437.445
POPSAT HIP 1 19 Dec 11:14:40 11:16:37 13° 270° (W) 11:18:35 437.405
RS-15 19 Dec 11:17:34 11:28:00 54° 113° (ESE) 11:38:26 29.354- 29.394
50 SAT 19 Dec 11:24:24 11:28:01 29° 291° (WNW) 11:31:38 437.505
HUMSAT D 19 Dec 11:35:08 11:38:21 21° 294° (WNW) 11:41:34 437.325/437.525
YUBILEINY 19 Dec 11:42:23 11:50:43 54° 270° (W) 11:59:03 435.215
ESTCUBE 1 19 Dec 11:51:57 11:56:05 37° 291° (WNW) 12:00:11 437.505/2401.250
VELOX 1 19 Dec 11:56:06 11:58:43 16° 298° (WNW) 12:01:21 145.980
PCSat 19 Dec 12:22:41 12:24:59 13° 102° (ESE) 12:27:17 145.827
Oscar 19 19 Dec 12:22:50 12:27:58 83° 75° (ENE) 12:33:10 437.125/150
Gurwin Techsat 1B 19 Dec 12:23:17 12:27:17 22° 62° (ENE) 12:31:17 435.225
SPROUT 19 Dec 12:26:11 12:30:27 64° 286° (WNW) 12:34:42 437.525
TISAT 1 19 Dec 12:27:47 12:31:55 57° 287° (WNW) 12:36:04 437.305
ITUPSAT 1 19 Dec 12:33:44 12:37:37 24° 94° (E) 12:41:29 437.325
SWISSCUBE 19 Dec 12:33:46 12:37:49 27° 95° (E) 12:41:49 437.505
ITAMSAT 1 19 Dec 12:35:38 12:40:31 43° 69° (ENE) 12:45:24 435.822/435.867
BEESAT 3 19 Dec 12:38:30 12:41:46 23° 113° (ESE) 12:45:05 437.485
CUBEBUG 1 19 Dec 12:51:08 12:52:10 11° 301° (WNW) 12:53:12 437.445
BEESAT 19 Dec 12:58:44 13:03:18 43° 99° (E) 13:07:49 436.000
AUBIESAT-1 19 Dec 13:05:20 13:08:04 16° 95° (E) 13:10:39 437.475
AO-7 19 Dec 13:06:38 13:12:41 23° 50° (NE) 13:18:44 29.400- 29.500
ISS 19 Dec 13:09:48 13:12:17 20° 135° (SE) 13:14:46 145.825
BEESAT 2 19 Dec 13:16:10 13:20:09 51° 119° (ESE) 13:24:13 435.950
HORYU 2 19 Dec 13:19:15 13:22:53 25° 66° (ENE) 13:26:32 437.375
M-CUBED/EXP-1 PRIME 19 Dec 13:28:59 13:32:59 32° 100° (E) 13:36:39 437.505
RS-15 19 Dec 13:29:53 13:40:26 52° 317° (NW) 13:51:09 29.354- 29.394
Gurwin Techsat 1B 19 Dec 14:01:40 14:06:51 54° 260° (W) 14:12:05 435.225
PCSat 19 Dec 14:02:09 14:07:34 90° 115° (ESE) 14:13:02 145.827
Oscar 19 19 Dec 14:05:51 14:07:57 12° 272° (W) 14:10:04 437.125/150
ITUPSAT 1 19 Dec 14:11:12 14:15:37 38° 291° (WNW) 14:20:00 437.325
SWISSCUBE 19 Dec 14:11:24 14:15:43 35° 292° (WNW) 14:20:00 437.505
AIST 2 19 Dec 14:14:14 14:18:29 87° 304° (NW) 14:22:49 435.215
BEESAT 3 19 Dec 14:15:53 14:19:45 38° 311° (NW) 14:23:40 437.485
ITAMSAT 1 19 Dec 14:15:56 14:20:10 25° 266° (W) 14:24:24 435.822/435.867
STARS 19 Dec 14:24:29 14:28:47 47° 100° (E) 14:33:04 437.465
KKS-1 19 Dec 14:25:04 14:29:33 72° 103° (ESE) 14:34:01 437.445
BEESAT 19 Dec 14:37:11 14:40:52 23° 296° (WNW) 14:44:32 436.000
AUBIESAT-1 19 Dec 14:39:05 14:43:23 49° 294° (WNW) 14:47:19 437.475
ISS 19 Dec 14:45:21 14:48:37 59° 332° (NNW) 14:51:53 145.825
JAS-2 19 Dec 14:47:23 14:53:48 31° 63° (ENE) 14:59:44 435.910
HORYU 2 19 Dec 14:55:18 14:59:23 35° 263° (W) 15:03:30 437.375
BEESAT 2 19 Dec 14:55:29 14:58:41 21° 318° (NW) 15:01:56 435.950
AO-7 19 Dec 14:56:02 15:04:22 87° 70° (ENE) 15:12:47 29.400- 29.500
M-CUBED/EXP-1 PRIME 19 Dec 15:04:07 15:07:52 26° 300° (WNW) 15:11:21 437.505
Cubesat XI-IV 19 Dec 15:24:46 15:25:56 11° 54° (NE) 15:27:07 437.490
MOZHAYETS 4 19 Dec 15:27:04 15:28:30 11° 88° (E) 15:29:56
GONETS M04 19 Dec 15:40:21 15:48:36 42° 71° (ENE) 15:56:42
RS-15 19 Dec 15:47:29 15:56:11 26° 349° (N) 16:05:05 29.354- 29.394
PCSat 19 Dec 15:47:58 15:51:45 19° 321° (NW) 15:55:32 145.827
AIST 2 19 Dec 15:55:18 15:57:46 15° 324° (NW) 16:00:16 435.215
CUTE-I 19 Dec 15:55:25 15:59:10 20° 61° (ENE) 16:02:54 437.470
STARS 19 Dec 16:01:50 16:04:55 19° 297° (WNW) 16:07:59 437.465
KKS-1 19 Dec 16:03:30 16:05:37 13° 300° (WNW) 16:07:44 437.445
AIST 1 19 Dec 16:15:16 16:19:38 72° 96° (E) 16:24:00
ISS 19 Dec 16:23:02 16:25:41 22° 351° (N) 16:28:20 145.825
JAS-2 19 Dec 16:30:54 16:38:29 60° 259° (W) 16:45:27 435.910
AO-7 19 Dec 16:52:20 16:58:08 21° 270° (W) 17:04:00 29.400- 29.500
Cubesat XI-IV 19 Dec 16:59:46 17:05:03 70° 73° (ENE) 17:10:22 437.490
MOZHAYETS 4 19 Dec 17:01:38 17:06:18 77° 285° (WNW) 17:10:53
CUTE-I 19 Dec 17:33:29 17:38:45 62° 258° (WSW) 17:44:02 437.470
GONETS M04 19 Dec 17:37:17 17:45:27 46° 272° (W) 17:53:33
MaSat-1 19 Dec 17:39:31 17:41:42 31° 60° (ENE) 17:43:59 437.345
HO-68 19 Dec 17:53:22 17:57:51 18° 52° (NE) 18:02:21 435.675
AIST 1 19 Dec 17:56:21 17:57:50 12° 294° (WNW) 17:59:19
ISS 19 Dec 18:00:18 18:03:01 23° 12° (NNE) 18:05:45 145.825
STRAND 1 19 Dec 18:02:30 18:06:59 30° 96° (E) 18:11:25 437.568
RS-15 19 Dec 18:03:38 18:13:14 32° 25° (NNE) 18:23:07 29.354- 29.394
PRISM 19 Dec 18:12:59 18:17:10 87° 284° (WNW) 18:21:18 437.425
CUBESAT XI-V 19 Dec 18:21:13 18:25:45 54° 100° (E) 18:30:15 437.345
COMPASS 1 19 Dec 18:40:56 18:42:11 11° 60° (ENE) 18:43:27 437.405
Cubesat XI-IV 19 Dec 18:42:27 18:45:39 16° 270° (W) 18:48:52 437.490
SEEDS 19 Dec 18:43:44 18:46:01 14° 62° (ENE) 18:48:18 437.485
CUTE 1.7 + AOD 2 19 Dec 18:45:04 18:47:49 17° 64° (ENE) 18:50:35 437.475
CUSAT 1 19 Dec 18:47:51 18:53:54 26° 66° (ENE) 19:00:34 437.405
DOVE 4 19 Dec 19:05:15 19:07:40 15° 63° (ENE) 19:10:06 437.250
Oscar 11 19 Dec 19:18:11 19:20:17 13° 61° (ENE) 19:22:23 145.826/435.025
UKube-1 19 Dec 19:26:08 19:28:07 13° 60° (ENE) 19:30:07 .
CUBEBUG 2 19 Dec 19:31:09 19:32:17 11° 59° (ENE) 19:33:26 437.445
DANDE 19 Dec 19:33:22 19:40:24 43° 73° (ENE) 19:48:27 436.750
ISS 19 Dec 19:36:43 19:40:00 77° 31° (NNE) 19:43:16 145.825
HO-68 19 Dec 19:37:19 19:44:30 81° 71° (ENE) 19:51:42 435.675
CINEMA 3 19 Dec 19:38:12 19:41:16 20° 65° (ENE) 19:44:24 145.822/145.860
BRITE-PL 19 Dec 19:38:16 19:42:24 63° 74° (ENE) 19:46:30 437.365/2234.400
AAUSAT CUBESAT 2 19 Dec 19:38:53 19:42:47 38° 71° (ENE) 19:46:44 437.432
STRAND 1 19 Dec 19:41:35 19:46:10 35° 293° (WNW) 19:50:45 437.568
ZACube-1 19 Dec 19:46:16 19:47:45 12° 60° (ENE) 19:49:14 437.345
CANX-2 19 Dec 19:48:03 19:52:19 83° 75° (ENE) 19:56:38 2200.000
